Regional Weather Roundup
Issued by NWS State College, PA

Home | Current Version | Previous Version | Graphics & Text | Print | Product List | Glossary Off
Versions: 1 2 3 4 5 6 7 8 9 10 11 12 13 14 15 16 17 18 19 20 21 22 23 24 25 26 27 28 29 30 31 32 33 34 35 36 37 38 39 40 41 42 43 44 45 46 47 48 49 50

000
ASUS41 KCTP 220410
RWRCTP

REGIONAL WEATHER ROUNDUP
NATIONAL WEATHER SERVICE STATE COLLEGE PA
1100 PM EST SUN DEC 21 2014

Note: "fair" indicates few or no clouds below 12,000 feet with no
significant weather and/or obstructions to visibility.

* = STATION THAT DOES NOT REPORT PRECIPITATION /E.G. RAIN...SNOW...ETC/
    THUNDER OR FOG.

PAZ002>004-007>009-013>016-020>023-029>032-220500-
WESTERN PENNSYLVANIA

CITY           SKY/WX    TMP DP  RH WIND       PRES   REMARKS
ERIE           CLOUDY    32  21  64 S6        30.25S
MEADVILLE      PTCLDY    28  21  75 CALM      30.20S
FRANKLIN*      PTCLDY    25  19  80 E6        30.22S
NEW CASTLE       N/A     25  21  84 CALM      30.23S
BEAVER COUNTY  NOT AVBL
BUTLER*        CLEAR     25  19  80 NE7       30.22S
PITTSBURGH INT PTCLDY    27  21  78 E3        30.19F
PITTSBURGH     PTCLDY    26  19  74 E5        30.19S
INDIANA*       CLEAR     28  21  74 E9        30.24F
LATROBE        PTCLDY    32  23  69 E8        30.22S
WASHINGTON CO* NOT AVBL
$$

PAZ004>006-010>012-017>019-024>028-033>037-041-042-045-046-049>053-220500-
CENTRAL PENNSYLVANIA

CITY           SKY/WX    TMP DP  RH WIND       PRES   REMARKS
BRADFORD       CLOUDY    23  19  85 SE6       30.19S
DUBOIS         CLEAR     20  17  88 E7        30.20S WCI  11
CLEARFIELD     CLEAR     21  18  88 N5        30.25S WCI  15
JOHNSTOWN      CLEAR     24  18  77 CALM      30.18S
ALTOONA        CLEAR     24  20  84 CALM      30.25F
STATE COLLEGE  CLEAR     25  20  83 CALM      30.28F
WILLIAMSPORT   CLEAR     24  19  81 CALM      30.33R
SELINSGROVE    CLEAR     22  19  89 CALM      30.34S
FT INDIANTOWN  FAIR      20  18  91 CALM      30.34R
CAPITAL CITY   CLEAR     24  20  84 SW3       30.35R
HARRISBURG     PTCLDY    24  20  84 CALM      30.34R
YORK           CLEAR     20  17  88 CALM      30.33R
$$

PAZ038>040-043-044-047-048-054-055-060>062-067>071-220500-
EASTERN PENNSYLVANIA

CITY           SKY/WX    TMP DP  RH WIND       PRES   REMARKS
SCRANTON       CLOUDY    30  22  72 CALM      30.30S
MOUNT POCONO   CLOUDY    27  21  78 E5        30.24R
ALLENTOWN      CLOUDY    26  21  81 SW3       30.33R
QUAKERTOWN*    CLOUDY    25  23  93 CALM      30.33R
READING        CLEAR     24  19  81 CALM      30.34R
LANCASTER      CLEAR     25  20  81 CALM      30.33S
COATESVILLE    CLEAR     27  23  86 N3        30.32S
POTTSTOWN      CLEAR     23  19  85 CALM      30.35R
BLUE BELL      CLOUDY    28  27  93 CALM      30.33S
DOYLESTOWN     CLOUDY    28  24  85 CALM      30.32S
WILLOW GROVE   NOT AVBL
NORTH PHILA    CLOUDY    33  22  63 CALM      30.35S
PHILADELPHIA   PTCLDY    31  22  69 NW5       30.35S
$$


USA.gov is the U.S. government's official web portal to all federal, state and local government web resources and services.